DW3795 Weather Reports


Display with metric or nautical units.
time (UTC)temp
F
wind
direction
speed
MPH
gust
MPH
rain 1hr
in
rain 24hr
in
rain mn
in
humidity
%
barometer
mb
20260906220033 83 203 1.0 5.0 0.00 0.00 0.00 62 1012.8
20260906214522 83 115 1.0 4.0 0.00 0.00 0.00 59 1012.7
20260906213024 85 95 1.0 6.0 0.00 0.00 0.00 56 1012.7
20260906211529 87 5 2.0 5.0 0.00 0.00 0.00 54 1012.5
20260906210035 86 77 1.0 4.0 0.00 0.00 0.00 54 1012.2
20260906204519 86 24 1.0 5.0 0.00 0.00 0.00 58 1012.2
20260906203021 85 35 1.0 4.0 0.00 0.00 0.00 62 1012.3
20260906201516 83 89 1.0 4.0 0.00 0.00 0.00 64 1012.4
20260906200029 84 52 0.0 0.0 0.00 0.00 0.00 65 1012.6
20260906194514 84 131 0.0 0.0 0.00 0.00 0.00 66 1012.4
20260906193014 84 119 0.0 8.0 0.00 0.00 0.00 66 1012.6
20260906191512 85 90 2.0 9.0 0.00 0.00 0.00 65 1012.6
20260906190011 84 115 1.0 3.0 0.00 0.00 0.00 68 1012.7
20260906184511 84 31 1.0 3.0 0.00 0.00 0.00 68 1012.9
20260906183023 84 93 3.0 7.0 0.00 0.00 0.00 67 1012.9
20260906181509 85 5 2.0 5.0 0.00 0.00 0.00 68 1012.9
20260906180010 84 335 0.0 3.0 0.00 0.00 0.00 67 1013.0
20260906174508 86 329 1.0 4.0 0.00 0.00 0.00 65 1013.1
20260906173013 87 87 1.0 8.0 0.00 0.00 0.00 64 1013.0
20260906171506 86 119 1.0 4.0 0.00 0.00 0.00 64 1013.1
20260906170005 86 83 0.0 3.0 0.00 0.00 0.00 65 1013.3
20260906164501 84 302 1.0 3.0 0.00 0.00 0.00 70 1013.3
20260906163059 83 269 0.0 0.0 0.00 0.00 0.00 72 1013.5
20260906161602 82 10 0.0 0.0 0.00 0.00 0.00 73 1013.6
20260906160057 82 27 0.0 0.0 0.00 0.00 0.00 72 1013.7
20260906154553 82 79 0.0 0.0 0.00 0.00 0.00 74 1013.9
20260906153050 80 93 0.0 0.0 0.00 0.00 0.00 77 1013.9
20260906151548 80 131 0.0 0.0 0.00 0.00 0.00 77 1013.9
20260906150056 80 95 0.0 3.0 0.00 0.00 0.00 79 1014.0
20260906144556 78 356 1.0 3.0 0.00 0.00 0.00 82 1013.8
20260906143039 77 329 1.0 3.0 0.00 0.00 0.00 85 1014.0
20260906141542 75 341 1.0 4.0 0.00 0.00 0.00 87 1014.0
20260906140038 75 326 1.0 3.0 0.00 0.00 0.00 87 1014.0
20260906134532 74 327 0.0 3.0 0.00 0.00 0.00 89 1013.9
20260906133029 73 326 1.0 5.0 0.00 0.00 0.00 90 1013.6
20260906131529 73 300 0.0 2.0 0.00 0.00 0.00 92 1013.6
20260906130036 72 191 0.0 2.0 0.00 0.00 0.00 92 1013.7
20260906124525 72 188 0.0 0.0 0.00 0.00 0.00 93 1013.7
20260906123023 72 188 0.0 0.0 0.00 0.00 0.00 93 1013.7
20260906121521 71 188 0.0 0.0 0.00 0.00 0.00 93 1013.6
20260906120020 71 188 0.0 0.0 0.00 0.00 0.00 93 1013.2
20260906114532 70 188 0.0 0.0 0.00 0.00 0.00 92 1012.9
20260906113013 70 188 0.0 0.0 0.00 0.00 0.00 91 1012.7
20260906111510 71 188 0.0 0.0 0.00 0.00 0.00 91 1012.6
20260906110010 71 188 0.0 0.0 0.00 0.00 0.00 91 1012.5
20260906104514 71 188 0.0 0.0 0.00 0.00 0.00 90 1012.4
20260906103004 72 188 0.0 1.0 0.00 0.00 0.00 90 1012.3
20260906101502 72 188 0.0 0.0 0.00 0.00 0.00 90 1011.9
20260906094639 72 188 0.0 1.0 0.00 0.00 0.00 90 1011.8
20260906093104 72 188 0.0 1.0 0.00 0.00 0.00 91 1011.7
20260906091555 73 188 0.0 1.0 0.00 0.00 0.00 91 1011.5
20260906090054 73 186 0.0 2.0 0.00 0.00 0.00 91 1011.5
20260906084553 73 120 0.0 0.0 0.00 0.00 0.00 91 1011.4
20260906083053 73 120 0.0 0.0 0.00 0.00 0.00 91 1011.3
20260906081554 73 121 0.0 0.0 0.00 0.00 0.00 91 1011.6
20260906080052 74 121 0.0 0.0 0.00 0.00 0.00 92 1011.4
20260906074548 74 119 0.0 0.0 0.00 0.00 0.00 92 1011.1
20260906073047 74 119 0.0 0.0 0.00 0.00 0.00 92 1011.1
20260906071547 74 119 0.0 0.0 0.00 0.00 0.00 92 1011.3
20260906070045 74 121 0.0 0.0 0.00 0.00 0.00 92 1011.2
20260906064545 74 121 0.0 0.0 0.00 0.00 0.00 92 1011.1
20260906063044 74 121 0.0 0.0 0.00 0.00 0.00 92 1011.3
20260906061543 74 121 0.0 0.0 0.00 0.00 0.00 92 1011.1
20260906060043 74 121 0.0 0.0 0.00 0.00 0.00 91 1011.2
20260906054541 74 121 0.0 0.0 0.00 0.00 0.00 91 1011.3
20260906053039 74 121 0.0 0.0 0.00 0.00 0.00 90 1011.3
20260906051538 74 121 0.0 0.0 0.00 0.00 0.00 90 1011.1
20260906050037 75 121 0.0 0.0 0.00 0.00 0.00 90 1011.3
20260906044541 75 121 0.0 0.0 0.00 0.00 0.00 90 1011.2
20260906043042 75 121 0.0 0.0 0.00 0.00 0.00 90 1011.1
20260906041532 75 121 0.0 0.0 0.00 0.00 0.00 89 1011.4
20260906040034 75 121 0.0 0.0 0.00 0.00 0.00 88 1011.5
20260906034531 75 121 0.0 0.0 0.00 0.00 0.00 88 1011.4
20260906033033 76 121 0.0 0.0 0.00 0.00 0.00 87 1011.3
20260906031543 76 121 0.0 0.0 0.00 0.00 0.00 86 1011.4
20260906030028 77 122 0.0 0.0 0.00 0.00 0.00 84 1011.4
20260906024528 78 123 0.0 0.0 0.00 0.00 0.00 84 1011.4
20260906023028 78 123 0.0 0.0 0.00 0.00 0.00 83 1011.1
20260906021527 79 124 0.0 0.0 0.00 0.00 0.00 82 1011.1
20260906020031 79 123 0.0 0.0 0.00 0.00 0.00 82 1010.9
20260906014530 79 123 0.0 3.0 0.00 0.00 0.00 81 1010.9
20260906013025 80 43 0.0 2.0 0.00 0.00 0.00 82 1010.8
20260906011525 80 41 0.0 1.0 0.00 0.00 0.00 81 1010.7
20260906010024 81 41 0.0 1.0 0.00 0.00 0.00 79 1010.5
20260906004524 81 41 0.0 1.0 0.00 0.00 0.00 77 1010.3
20260906003027 82 42 0.0 1.0 0.00 0.00 0.00 75 1010.2
20260906001522 83 42 0.0 1.0 0.00 0.00 0.00 73 1010.1
20260906000023 85 42 0.0 1.0 0.00 0.00 0.00 71 1009.9
20260905234522 86 43 0.0 2.0 0.00 0.00 0.00 68 1009.7
20260905233029 87 15 0.0 0.0 0.00 0.00 0.00 67 1009.1
20260905231521 88 15 0.0 3.0 0.00 0.00 0.00 66 1008.9
20260905230020 88 183 0.0 2.0 0.00 0.00 0.00 64 1009.0
20260905224520 89 184 1.0 3.0 0.00 0.00 0.00 62 1008.9
20260905223032 90 184 0.0 4.0 0.00 0.00 0.00 61 1009.0
20260905221535 90 85 0.0 4.0 0.00 0.00 0.00 59 1008.9